TimeCDT,TemperatureF,Dew PointF,Humidity,Sea Level PressureIn,VisibilityMPH,Wind Direction,Wind SpeedMPH,Gust SpeedMPH,PrecipitationIn,Events,Conditions,WindDirDegrees,DateUTC
12:15 AM,55.4,42.8,63,29.96,10.0,South,15.0,-,N/A,,Clear,180,2012-10-03 05:15:00
12:35 AM,55.4,42.8,63,29.96,10.0,South,17.3,21.9,N/A,,Clear,180,2012-10-03 05:35:00
12:55 AM,55.4,42.8,63,29.95,10.0,South,19.6,23.0,N/A,,Clear,180,2012-10-03 05:55:00
1:15 AM,55.4,42.8,63,29.95,10.0,South,18.4,-,N/A,,Clear,180,2012-10-03 06:15:00
1:35 AM,55.4,42.8,63,29.95,10.0,South,16.1,-,N/A,,Clear,170,2012-10-03 06:35:00
1:55 AM,55.4,42.8,63,29.94,10.0,South,16.1,21.9,N/A,,Clear,170,2012-10-03 06:55:00
2:15 AM,55.4,42.8,63,29.94,10.0,South,17.3,-,N/A,,Clear,170,2012-10-03 07:15:00
2:35 AM,55.4,42.8,63,29.94,10.0,South,16.1,-,N/A,,Clear,170,2012-10-03 07:35:00
2:55 AM,53.6,42.8,67,29.94,10.0,South,13.8,-,N/A,,Clear,170,2012-10-03 07:55:00
3:15 AM,53.6,42.8,67,29.94,10.0,South,12.7,19.6,N/A,,Clear,180,2012-10-03 08:15:00
3:35 AM,53.6,44.6,72,29.94,10.0,South,10.4,-,N/A,,Clear,180,2012-10-03 08:35:00
3:55 AM,51.8,44.6,76,29.94,10.0,South,10.4,-,N/A,,Clear,170,2012-10-03 08:55:00
4:15 AM,53.6,44.6,72,29.94,10.0,South,10.4,-,N/A,,Clear,180,2012-10-03 09:15:00
4:35 AM,51.8,44.6,76,29.94,10.0,South,10.4,-,N/A,,Clear,180,2012-10-03 09:35:00
4:55 AM,51.8,44.6,76,29.94,10.0,South,11.5,-,N/A,,Clear,180,2012-10-03 09:55:00
5:15 AM,51.8,44.6,76,29.94,10.0,South,12.7,-,N/A,,Clear,170,2012-10-03 10:15:00
5:55 AM,51.8,44.6,76,29.93,10.0,South,13.8,-,N/A,,Clear,180,2012-10-03 10:55:00
6:15 AM,51.8,44.6,76,29.93,10.0,South,11.5,-,N/A,,Clear,180,2012-10-03 11:15:00
6:55 AM,51.8,44.6,76,29.93,10.0,South,9.2,-,N/A,,Clear,180,2012-10-03 11:55:00
7:15 AM,51.8,44.6,76,29.94,10.0,South,8.1,-,N/A,,Clear,180,2012-10-03 12:15:00
7:35 AM,51.8,44.6,76,29.95,10.0,South,5.8,-,N/A,,Clear,190,2012-10-03 12:35:00
7:55 AM,50.0,44.6,82,29.94,10.0,South,6.9,-,N/A,,Clear,180,2012-10-03 12:55:00
8:15 AM,51.8,44.6,76,29.94,10.0,South,9.2,-,N/A,,Clear,180,2012-10-03 13:15:00
8:35 AM,53.6,46.4,77,29.94,10.0,South,9.2,-,N/A,,Clear,180,2012-10-03 13:35:00
8:55 AM,55.4,46.4,72,29.95,10.0,South,10.4,-,N/A,,Clear,190,2012-10-03 13:55:00
9:15 AM,59.0,46.4,63,29.95,10.0,SSW,10.4,-,N/A,,Clear,200,2012-10-03 14:15:00
9:35 AM,60.8,46.4,59,29.95,10.0,SSW,12.7,-,N/A,,Clear,200,2012-10-03 14:35:00
9:55 AM,62.6,48.2,59,29.95,10.0,South,17.3,23.0,N/A,,Clear,190,2012-10-03 14:55:00
10:15 AM,64.4,46.4,52,29.95,10.0,SSW,17.3,21.9,N/A,,Clear,200,2012-10-03 15:15:00
10:35 AM,66.2,46.4,49,29.95,10.0,SSW,20.7,24.2,N/A,,Clear,200,2012-10-03 15:35:00
10:55 AM,68.0,46.4,46,29.95,10.0,SSW,19.6,25.3,N/A,,Clear,210,2012-10-03 15:55:00
11:35 AM,69.8,48.2,46,29.95,10.0,SW,15.0,23.0,N/A,,Clear,220,2012-10-03 16:35:00
11:55 AM,71.6,48.2,43,29.94,10.0,SSW,15.0,-,N/A,,Clear,200,2012-10-03 16:55:00
12:15 PM,71.6,48.2,43,29.94,10.0,South,13.8,-,N/A,,Clear,190,2012-10-03 17:15:00
12:55 PM,73.4,50.0,44,29.93,10.0,South,15.0,20.7,N/A,,Clear,180,2012-10-03 17:55:00
1:15 PM,75.2,50.0,41,29.92,10.0,South,15.0,20.7,N/A,,Clear,180,2012-10-03 18:15:00
1:35 PM,77.0,50.0,39,29.92,10.0,South,16.1,21.9,N/A,,Clear,190,2012-10-03 18:35:00
1:55 PM,77.0,50.0,39,29.91,10.0,South,16.1,23.0,N/A,,Clear,180,2012-10-03 18:55:00
2:35 PM,77.0,48.2,36,29.90,10.0,South,17.3,21.9,N/A,,Clear,190,2012-10-03 19:35:00
2:55 PM,77.0,46.4,34,29.90,10.0,South,17.3,24.2,N/A,,Clear,180,2012-10-03 19:55:00
3:15 PM,78.8,48.2,34,29.89,10.0,South,16.1,24.2,N/A,,Clear,190,2012-10-03 20:15:00
3:35 PM,78.8,48.2,34,29.89,10.0,South,21.9,25.3,N/A,,Clear,180,2012-10-03 20:35:00
3:55 PM,78.8,48.2,34,29.89,10.0,South,20.7,26.5,N/A,,Clear,180,2012-10-03 20:55:00
4:15 PM,78.8,48.2,34,29.88,10.0,South,18.4,26.5,N/A,,Clear,180,2012-10-03 21:15:00
4:35 PM,78.8,48.2,34,29.89,10.0,South,20.7,26.5,N/A,,Clear,170,2012-10-03 21:35:00
4:55 PM,77.0,48.2,36,29.89,10.0,South,19.6,25.3,N/A,,Clear,170,2012-10-03 21:55:00
5:15 PM,77.0,48.2,36,29.89,10.0,South,19.6,24.2,N/A,,Clear,170,2012-10-03 22:15:00
5:55 PM,77.0,48.2,36,29.89,10.0,South,19.6,27.6,N/A,,Clear,170,2012-10-03 22:55:00
6:15 PM,75.2,48.2,38,29.89,10.0,South,21.9,29.9,N/A,,Clear,170,2012-10-03 23:15:00
6:35 PM,73.4,48.2,41,29.89,10.0,South,20.7,26.5,N/A,,Clear,170,2012-10-03 23:35:00
6:55 PM,71.6,50.0,46,29.89,10.0,SSE,21.9,28.8,N/A,,Clear,160,2012-10-03 23:55:00
7:15 PM,71.6,50.0,46,29.89,10.0,South,21.9,27.6,N/A,,Clear,170,2012-10-04 00:15:00
7:55 PM,69.8,50.0,49,29.91,10.0,South,15.0,21.9,N/A,,Clear,170,2012-10-04 00:55:00
8:35 PM,68.0,50.0,52,29.93,10.0,SSE,13.8,18.4,N/A,,Clear,160,2012-10-04 01:35:00
8:55 PM,64.4,51.8,64,29.93,10.0,SSE,13.8,-,N/A,,Clear,160,2012-10-04 01:55:00
9:55 PM,64.4,51.8,64,29.94,10.0,SSE,17.3,24.2,N/A,,Clear,160,2012-10-04 02:55:00
10:15 PM,64.4,51.8,64,29.95,10.0,SSE,18.4,24.2,N/A,,Clear,160,2012-10-04 03:15:00
10:55 PM,64.4,51.8,64,29.95,10.0,SSE,19.6,24.2,N/A,,Clear,160,2012-10-04 03:55:00
11:15 PM,64.4,51.8,64,29.95,10.0,SSE,18.4,25.3,N/A,,Clear,160,2012-10-04 04:15:00
11:35 PM,64.4,51.8,64,29.95,10.0,SSE,17.3,-,N/A,,Clear,160,2012-10-04 04:35:00
11:55 PM,62.6,51.8,68,29.95,10.0,SSE,19.6,-,N/A,,Clear,160,2012-10-04 04:55:00